450  
ASUS44 KSHV 251210  
RWRSHV  
 
THE FOUR STATE AREA WEATHER ROUNDUP  
NATIONAL WEATHER SERVICE SHREVEPORT LA  
700 AM CDT SAT MAY 25 2024  
 
NOTE: "FAIR" INDICATES FEW OR NO CLOUDS BELOW 12000 FEET  
WITH NO SIGNIFICANT WEATHER AND/OR S TO VISIBILITY
.  
 
!LAZ001-LAZ014-TXZ097-251300  
SHREVEPORT...MONROE...TEXARKANA RADIOS  
 
CITY SKY/WX TMP DP RH WIND PRES REMARKS
 
SHREVEPORT MOCLDY 79 75 89 SE5 29.85R  
MONROE SUNNY 77 74 90 CALM 29.87R  
NATCHITOCHES CLOUDY 76 76 100 CALM 29.86R FOG  
TEXARKANA CLOUDY 73 69 87 NE3 29.84R  
ATLANTA CLEAR 77 76 98 CALM 29.82R  

 
 
!LAZ001-LAZ014-TXZ097-251300  
OTHER LOCATIONS...  
 
CITY SKY/WX TMP DP RH WIND PRES REMARKS
 
DOWNTOWN SHV PTCLDY 79 74 84 S6 29.86R  
BOSSIER CITY MOCLDY 78 75 90 S6 29.84R  
RUSTON CLEAR 75 75 100 S5 29.86R FOG  
LITTLE ROCK MOSUNNY 74 64 71 N6 29.85R  
EL DORADO CLOUDY 71 69 93 CALM 29.86R  
JACKSON CLOUDY 77 74 90 S6 29.90R  
NEW ORLEANS PTSUNNY 79 76 90 S3 29.88R  
HOUSTON CLOUDY 80 77 90 SE8 29.81R FOG  
LUFKIN CLOUDY 77 76 96 SE6 29.83R  
TYLER CLOUDY 75 73 93 SE6 29.83R FOG  
DAL FT WORTH MOCLDY 71 70 96 NE6 29.79R FOG  

 
 
!TXZ136-TXZ165-251300  
TYLER...LUFKIN RADIOS  
 
CITY SKY/WX TMP DP RH WIND PRES REMARKS
 
TYLER CLOUDY 75 73 93 SE6 29.83R FOG  
GILMER CLOUDY 74 71 89 CALM 29.84R  
LONGVIEW CLOUDY 77 76 96 SE5 29.84R  
LUFKIN CLOUDY 77 76 96 SE6 29.83R  

 
 
!TXZ136-TXZ165-251300  
OTHER LOCATIONS...  
 
CITY SKY/WX TMP DP RH WIND PRES REMARKS
 
NACOGDOCHES CLOUDY 77 N/A N/A SE5 29.86R HAZE  
BEAUMONT CLOUDY 78 76 93 E5 29.84R FOG  
HOUSTON CLOUDY 80 77 90 SE8 29.81R FOG  
COLLEGE STN CLOUDY 78 76 93 S6 29.80R FOG  
AUSTIN CLOUDY 77 76 96 CALM 29.79R  
DAL FT WORTH MOCLDY 71 70 96 NE6 29.79R FOG  
TEXARKANA CLOUDY 73 69 87 NE3 29.84R  
SHREVEPORT MOCLDY 79 75 89 SE5 29.85R  
FORT POLK CLOUDY 78 76 92 S14 29.84R  
LAKE CHARLES CLEAR 78 77 96 SE5 29.87R FOG  

 
 
 
CLICK HERE TO GO TO PREVIOUS BULLETINS.

The Nexlab LA Page
The Nexlab TX Page
The Nexlab AR Page
The Nexlab OK Page Main Text Page